Weather History for Jacksonville, FL

Change the Weather History Date:

Sunday, March 3, 2013

  Actual Average Record
Temperature  
Mean Temperature 39 °F 59 °F  
Max Temperature 47 °F 71 °F 88 °F (2012)
Min Temperature 31 °F 48 °F 23 °F (1980)
Degree Days  
Heating Degree Days 26 7  
Month to date heating degree days 60 21  
Since 1 July heating degree days 953 1154  
Cooling Degree Days 0 1  
Month to date cooling degree days 0 3  
Year to date cooling degree days 76 32  
Moisture  
Dew Point 27 °F    
Average Humidity 66    
Maximum Humidity 89    
Minimum Humidity 42    
Precipitation  
Precipitation 0.00 in 0.15 in 2.38 in (2002)
Month to date precipitation 0.00 0.42  
Year to date precipitation 5.72 6.91  
Snow  
Snow 0.00 in 0.00 in T in (1980)
Month to date snowfall 0.0 0.0  
Since 1 July snowfall 0.0 T  
Snow Depth 0.00 in    
Sea Level Pressure  
Sea Level Pressure 30.05 in    
Wind  
Wind Speed 9 mph (WNW)    
Max Wind Speed 21 mph    
Max Gust Speed 28 mph    
Visibility 10 miles    
Events      
T = Trace of Precipitation, MM = Missing Value Source: NWS Daily Summary

Daily Weather History Graph

Daily Weather History Graph

Search for Another Location

Airport:

Trip Planner

Search our weather history database for the weather conditions in past years. The results will help you decide how hot, cold, wet, or windy it might be!

Date:

Astronomy

Mar. 03, 2013 Rise Set
Actual Time 6:50 AM EST 6:27 PM EST
Civil Twilight 6:26 AM EST 6:51 PM EST
Nautical Twilight 5:58 AM EST 7:19 PM EST
Astronomical Twilight 5:30 AM EST 7:47 PM EST
Moon No Moon Rise 10:31 AM EST (3/3)
Length of Visible Light 12h 24m
Length of Day
11h 36m
Waning Gibbous, 64% of the Moon is Illuminated
Mar 3
Waning Gibbous
Mar 4
Last Quarter
Mar 11
New
Mar 19
First Quarter
Mar 27
Full

Hourly Weather History & Observations

Time (EST) Temp. Windchill Dew Point Humidity Pressure Visibility Wind Dir Wind Speed Gust Speed Precip Events Conditions
12:56 AM 37.0 °F 31.6 °F 28.9 °F 73% 30.01 in 10.0 mi West 6.9 mph - N/A   Clear
1:56 AM 36.0 °F 30.3 °F 30.0 °F 79% 30.02 in 10.0 mi West 6.9 mph - N/A   Clear
2:56 AM 37.0 °F 32.4 °F 30.0 °F 76% 30.01 in 10.0 mi West 5.8 mph - N/A   Mostly Cloudy
3:56 AM 35.1 °F 29.3 °F 30.0 °F 82% 30.01 in 10.0 mi West 6.9 mph - N/A   Partly Cloudy
4:56 AM 35.1 °F 29.3 °F 30.0 °F 82% 30.01 in 10.0 mi WNW 6.9 mph - N/A   Clear
5:56 AM 34.0 °F 28.8 °F 30.0 °F 85% 30.02 in 10.0 mi WNW 5.8 mph - N/A   Clear
6:56 AM 33.1 °F 28.7 °F 28.9 °F 85% 30.04 in 10.0 mi West 4.6 mph - N/A   Partly Cloudy
7:56 AM 37.9 °F 33.5 °F 30.0 °F 73% 30.05 in 10.0 mi West 5.8 mph - N/A   Partly Cloudy
8:56 AM 41.0 °F 32.5 °F 28.0 °F 60% 30.06 in 10.0 mi WNW 17.3 mph 21.9 mph N/A   Partly Cloudy
9:56 AM 43.0 °F 36.0 °F 25.0 °F 49% 30.06 in 10.0 mi NW 13.8 mph 25.3 mph N/A   Scattered Clouds
10:56 AM 43.0 °F 36.4 °F 25.0 °F 49% 30.06 in 10.0 mi WNW 12.7 mph 21.9 mph N/A   Mostly Cloudy
11:56 AM 43.0 °F 35.7 °F 25.0 °F 49% 30.06 in 10.0 mi WNW 15.0 mph - N/A   Overcast
12:56 PM 43.0 °F 34.8 °F 24.1 °F 47% 30.05 in 10.0 mi WNW 18.4 mph 25.3 mph N/A   Overcast
1:56 PM 45.0 °F 37.9 °F 24.1 °F 44% 30.03 in 10.0 mi West 16.1 mph 25.3 mph N/A   Mostly Cloudy
2:56 PM 44.1 °F 37.1 °F 25.0 °F 47% 30.02 in 10.0 mi NW 15.0 mph 21.9 mph N/A   Mostly Cloudy
3:56 PM 45.0 °F 39.7 °F 27.0 °F 49% 30.02 in 10.0 mi WNW 10.4 mph - N/A   Mostly Cloudy
4:56 PM 46.0 °F 40.2 °F 25.0 °F 44% 30.02 in 10.0 mi NW 12.7 mph 20.7 mph N/A   Scattered Clouds
5:56 PM 44.1 °F 38.1 °F 25.0 °F 47% 30.04 in 10.0 mi WNW 11.5 mph - N/A   Scattered Clouds
6:56 PM 41.0 °F 35.8 °F 25.0 °F 53% 30.07 in 10.0 mi WNW 8.1 mph - N/A   Partly Cloudy
7:56 PM 37.9 °F 35.5 °F 25.0 °F 60% 30.10 in 10.0 mi WNW 3.5 mph - N/A   Clear
8:56 PM 35.1 °F 32.2 °F 27.0 °F 72% 30.13 in 10.0 mi West 3.5 mph - N/A   Clear
9:56 PM 32.0 °F 28.7 °F 27.0 °F 82% 30.14 in 10.0 mi WSW 3.5 mph - N/A   Clear
10:56 PM 30.9 °F 27.5 °F 27.0 °F 85% 30.14 in 10.0 mi WSW 3.5 mph - N/A   Clear
11:56 PM 30.9 °F 27.5 °F 27.0 °F 85% 30.14 in 10.0 mi WSW 3.5 mph - N/A   Clear